Location: Azul
(36.7830°S, 59.8500°W)
Time: 18:40:51
(UTC-03:00)

BEESAT - Pass Details

Date: 24 October 2021
Orbit: 700 x 707 km, 98.6° (Epoch: 06 December)

Event Time Altitude Azimuth Distance (km) Brightness Sun altitude
Rises 20:30:14 0° 351° (N) 3,088 ? -13.1°
Reaches altitude 10° 20:32:41 10° 340° (NNW) 2,179 ? -13.5°
Maximum altitude 20:36:56 32° 278° (W) 1,224 ? -14.3°
Drops below altitude 10° 20:41:16 10° 214° (SW) 2,209 ? -15.0°
Sets 20:43:46 0° 204° (SSW) 3,137 ? -15.5°
